[[{"header":{"parameterUnit":"m.s-1","parameterCategory":1,"la1":30.2991,"la2":30.254,"lo1":-89.0895,"lo2":-89.0444,"dy":0.0017,"dx":0.0017,"nx":28,"ny":28,"refTime":"2023-09-23T03:00:00:Z","depth":0,"parameterNumber":2,"parameterNumberName":"U-component_of_WINDS"},"data":[0,0,0,0,0,0,0,0,0,0,0,0,0,0,0,0,0,0,0,0,0,0,0,0,0,0,0,0,0,0,0,0,0,0,0,0,0,0,0,0,0,0,0,0,0,0,0,0,0,0,0,0,0,0,0,0,0,0,-1.6786,-1.6786,0,-1.6746,-1.6746,-1.6745,-1.6686,-1.6685,-1.6683,-1.6682,-1.6641,-1.6641,-1.664,0,0,0,0,0,0,0,0,0,0,0,0,0,-1.6812,-1.6812,-1.6786,-1.6786,-1.6785,-1.6746,-1.6746,-1.6745,-1.6686,-1.6684,-1.6683,-1.6682,-1.6641,-1.6641,-1.664,0,0,0,0,0,0,0,0,0,0,0,0,0,-1.6789,-1.6812,-1.6786,-1.6751,-1.6747,-1.6746,-1.6745,-1.6745,-1.6686,-1.6684,-1.6683,-1.6681,-1.6641,-1.6641,-1.664,-1.667,0,0,-1.664,-1.664,0,0,0,0,0,0,0,0,-1.679,-1.6788,-1.6757,-1.6753,-1.6749,-1.6719,-1.6739,-1.672,-1.6686,-1.6709,-1.6682,-1.6681,-1.6668,-1.6665,-1.6661,-1.6668,-1.6666,-1.664,-1.664,-1.6639,-1.6639,0,0,0,0,0,0,0,-1.6792,-1.679,-1.677,-1.6756,-1.6752,-1.6737,-1.6732,-1.6735,-1.6698,-1.6707,-1.6703,-1.6699,-1.6666,-1.6662,-1.666,-1.6666,-1.664,-1.6639,-1.6639,-1.6639,-1.6695,-1.6696,0,0,0,0,0,0,-1.6799,-1.6791,-1.6772,-1.6769,-1.6767,-1.6738,-1.6732,-1.673,-1.6698,-1.6691,-1.67,-1.6696,-1.6663,-1.666,-1.6658,-1.669,-1.6639,-1.6639,-1.6639,-1.6693,-1.6695,-1.6697,0,0,0,0,0,0,-1.68,-1.6798,-1.6773,-1.6779,-1.6775,-1.6739,-1.6737,-1.6731,-1.6726,-1.6692,-1.6685,-1.6703,-1.6661,-1.6658,-1.6668,-1.6688,-1.6639,-1.6639,-1.6691,-1.6694,-1.6696,-1.6755,0,0,0,0,0,0,-1.6801,-1.6798,-1.6809,-1.678,-1.6775,-1.6783,-1.6739,-1.6731,-1.6726,-1.6721,-1.6693,-1.6687,-1.666,-1.6668,-1.6667,-1.6687,-1.6639,-1.6689,-1.6693,-1.6695,-1.6751,-1.6759,-1.6766,0,0,0,0,0,-1.6802,-1.6827,-1.681,-1.6808,-1.6788,-1.6785,-1.6782,-1.675,-1.6728,-1.6739,-1.6717,-1.6688,-1.6686,-1.667,-1.6668,-1.6688,-1.6688,-1.6692,-1.6695,-1.6748,-1.6758,-1.6766,0,0,0,0,0,0,-1.686,-1.6823,-1.6803,-1.682,-1.6806,-1.6775,-1.6787,-1.6762,-1.6754,-1.6749,-1.671,-1.6704,-1.6718,-1.6704,-1.6686,-1.6715,-1.6683,-1.6686,-1.6723,-1.6732,-1.674,-1.6742,-1.6639,0,0,0,0,0,-1.6875,-1.6876,-1.6843,-1.6861,-1.6855,-1.6823,-1.682,-1.6797,-1.6781,-1.6775,-1.6754,-1.6739,-1.6735,-1.6733,-1.6728,-1.675,-1.6742,-1.6762,-1.677,-1.6776,-1.6779,-1.6789,-1.6797,-1.6709,-1.6709,-1.6709,0,0,-1.6905,-1.6885,-1.6888,-1.6872,-1.6859,-1.686,-1.6818,-1.6821,-1.6822,-1.6775,-1.6782,-1.6767,-1.6748,-1.6763,-1.6769,-1.6752,-1.6802,-1.6781,-1.6786,-1.6786,-1.6794,-1.6802,-1.681,-1.6711,-1.6711,-1.6711,0,0,-1.6961,-1.6947,-1.6959,-1.6947,-1.6927,-1.6905,-1.6909,-1.6882,-1.6869,-1.6876,-1.6841,-1.6842,-1.6836,-1.6823,-1.6817,-1.6869,-1.6842,-1.6869,-1.6907,-1.6917,-1.6924,-1.693,-1.6948,-1.6955,-1.6872,-1.6872,-1.6873,0,-1.7001,-1.7002,-1.6969,-1.6975,-1.6969,-1.6928,-1.694,-1.693,-1.691,-1.6906,-1.6888,-1.688,-1.6864,-1.6876,-1.6889,-1.6885,-1.6887,-1.6871,-1.6926,-1.6932,-1.6937,-1.6953,-1.696,-1.6876,-1.6875,-1.6875,-1.6875,0,-1.7052,-1.7053,-1.7066,-1.7048,-1.7043,-1.7053,-1.7021,-1.7021,-1.6999,-1.698,-1.6987,-1.6967,-1.6957,-1.6958,-1.6937,-1.6967,-1.6957,-1.6933,-1.69,-1.6949,-1.6964,-1.697,-1.688,-1.6879,-1.6878,-1.6877,0,0,-1.7141,-1.7105,-1.711,-1.7101,-1.7077,-1.7078,-1.7086,-1.7076,-1.7076,-1.7064,-1.7069,-1.7065,-1.7043,-1.7035,-1.7012,-1.7022,-1.7064,-1.6996,-1.6995,-1.7008,-1.7095,-1.7112,-1.712,-1.7046,-1.7047,-1.7048,-1.7096,0,-1.7191,-1.7202,-1.7173,-1.7191,-1.7191,-1.7153,-1.716,-1.7146,-1.7128,-1.7126,-1.7106,-1.7104,-1.7075,-1.707,-1.7078,-1.7057,-1.708,-1.7053,-1.7049,-1.705,-1.7054,-1.7128,-1.7146,-1.7191,-1.7102,-1.7103,-1.7103,0,-1.725,-1.7241,-1.7259,-1.7234,-1.7233,-1.724,-1.7228,-1.7227,-1.7211,-1.7197,-1.7189,-1.7163,-1.7168,-1.7138,-1.7145,-1.7127,-1.7124,-1.7114,-1.7115,-1.7112,-1.7078,-1.7125,-1.7205,-1.7212,-1.7112,-1.7112,-1.7111,0,-1.7312,-1.7305,-1.7314,-1.7308,-1.7279,-1.7285,-1.7273,-1.7255,-1.7251,-1.7242,-1.7239,-1.723,-1.7225,-1.7219,-1.7191,-1.7172,-1.7201,-1.7168,-1.7189,-1.719,-1.7195,-1.7195,-1.7275,-1.7197,-1.7196,-1.7196,-1.7196,0,-1.737,-1.7382,-1.7342,-1.7347,-1.736,-1.7327,-1.7341,-1.7325,-1.731,-1.7312,-1.7279,-1.7281,-1.7245,-1.7243,-1.7222,-1.723,-1.7229,-1.7217,-1.7211,-1.7219,-1.7221,-1.7216,-1.7211,-1.7198,-1.7198,-1.7197,-1.7197,0,-1.744,-1.7414,-1.7421,-1.7394,-1.7388,-1.7398,-1.7374,-1.7379,-1.736,-1.7363,-1.7361,-1.7331,-1.7328,-1.73,-1.729,-1.7276,-1.7292,-1.728,-1.7297,-1.7293,-1.7315,-1.7313,-1.7393,-1.7402,-1.7319,-1.732,-1.7321,0,-1.7478,-1.7486,-1.746,-1.7459,-1.7449,-1.7448,-1.7444,-1.7413,-1.741,-1.7392,-1.7398,-1.7393,-1.7386,-1.7382,-1.7359,-1.7352,-1.7339,-1.7368,-1.7337,-1.7346,-1.7338,-1.7337,-1.7337,-1.7374,-1.7375,-1.7375,-1.7376,0,-1.7547,-1.7534,-1.7529,-1.7521,-1.7517,-1.7508,-1.7498,-1.7499,-1.7465,-1.7463,-1.7459,-1.7455,-1.7445,-1.7439,-1.7428,-1.7416,-1.739,-1.7386,-1.739,-1.7398,-1.7407,-1.7401,-1.7313,-1.7384,-1.7383,-1.7383,-1.7382,-1.7382,-1.7601,-1.7607,-1.7589,-1.7585,-1.7574,-1.7566,-1.7568,-1.755,-1.7546,-1.7536,-1.7518,-1.7517,-1.7501,-1.7483,-1.7473,-1.7471,-1.7456,-1.7463,-1.7464,-1.7466,-1.747,-1.7409,-1.7469,-1.7469,-1.7469,-1.7469,-1.7468,0,-1.7668,-1.7655,-1.7652,-1.7638,-1.7635,-1.7613,-1.76,-1.7599,-1.7599,-1.7586,-1.758,-1.7576,-1.7571,-1.7548,-1.754,-1.7543,-1.7531,-1.7542,-1.7541,-1.7538,-1.7484,-1.7481,-1.7552,-1.7552,-1.7552,-1.7552,-1.7552,-1.7552,-1.7702,-1.771,-1.7695,-1.7698,-1.7684,-1.7683,-1.7678,-1.767,-1.7659,-1.7656,-1.7652,-1.7637,-1.762,-1.7611,-1.7605,-1.7598,-1.7596,-1.7611,-1.76,-1.755,-1.7542,-1.7534,-1.7531,-1.7611,-1.7611,-1.7654,-1.7654,-1.7655]},{"header":{"parameterUnit":"m.s-1","parameterCategory":1,"la1":30.2991,"la2":30.254,"lo1":-89.0895,"lo2":-89.0444,"dy":0.0017,"dx":0.0017,"nx":28,"ny":28,"refTime":"2023-09-23T03:00:00:Z","depth":0,"parameterNumber":3,"parameterNumberName":"V-component_of_WINDS"},"data":[0,0,0,0,0,0,0,0,0,0,0,0,0,0,0,0,0,0,0,0,0,0,0,0,0,0,0,0,0,0,0,0,0,0,0,0,0,0,0,0,0,0,0,0,0,0,0,0,0,0,0,0,0,0,0,0,0,0,1.3457,1.3456,0,1.3395,1.3395,1.3394,1.3359,1.3359,1.3359,1.3359,1.3293,1.3291,1.3289,0,0,0,0,0,0,0,0,0,0,0,0,0,1.3541,1.3539,1.3457,1.3456,1.3455,1.3395,1.3395,1.3394,1.3359,1.3359,1.3359,1.3359,1.3293,1.3291,1.3289,0,0,0,0,0,0,0,0,0,0,0,0,0,1.3494,1.3539,1.3457,1.3431,1.3428,1.3396,1.3395,1.3394,1.3359,1.3359,1.3359,1.3359,1.3294,1.3291,1.3289,1.3277,0,0,1.3281,1.328,0,0,0,0,0,0,0,0,1.3497,1.3491,1.3436,1.3433,1.3429,1.3385,1.34,1.3354,1.3359,1.3385,1.3359,1.3359,1.3323,1.3318,1.3307,1.3273,1.3271,1.3281,1.3279,1.3278,1.3278,0,0,0,0,0,0,0,1.35,1.3494,1.3432,1.3435,1.3431,1.3421,1.3414,1.3391,1.3356,1.3383,1.338,1.3374,1.3321,1.3309,1.3305,1.327,1.3281,1.3279,1.3277,1.3276,1.3222,1.3222,0,0,0,0,0,0,1.3508,1.3497,1.3434,1.3431,1.3464,1.342,1.3412,1.3399,1.3356,1.3349,1.3374,1.3372,1.3314,1.3308,1.3303,1.3285,1.3278,1.3276,1.3275,1.3222,1.3222,1.3222,0,0,0,0,0,0,1.351,1.3503,1.3437,1.3463,1.3454,1.3419,1.3404,1.3398,1.3386,1.3349,1.3342,1.3368,1.3313,1.3306,1.3283,1.3282,1.3275,1.3273,1.3222,1.3222,1.3222,1.325,0,0,0,0,0,0,1.3513,1.3504,1.35,1.3463,1.3452,1.342,1.3404,1.3397,1.3382,1.338,1.3342,1.3336,1.3313,1.3287,1.3281,1.3278,1.3271,1.3222,1.3222,1.3222,1.3249,1.3251,1.3252,0,0,0,0,0,1.3516,1.3509,1.35,1.3492,1.3447,1.342,1.3414,1.3388,1.3382,1.3377,1.3353,1.3337,1.3283,1.3285,1.3278,1.3275,1.3222,1.3222,1.3222,1.3248,1.325,1.3252,0,0,0,0,0,0,1.3546,1.3504,1.3493,1.3475,1.3451,1.3414,1.3407,1.3392,1.3369,1.3367,1.3335,1.3327,1.3307,1.3288,1.3291,1.326,1.3251,1.3249,1.3273,1.3275,1.3277,1.3281,1.3269,0,0,0,0,0,1.3551,1.3533,1.3497,1.3485,1.3474,1.3443,1.343,1.3412,1.3386,1.3376,1.335,1.3324,1.3301,1.3287,1.3264,1.3246,1.3236,1.324,1.3242,1.3243,1.3242,1.323,1.3231,1.3222,1.3222,1.3222,0,0,1.356,1.3535,1.3526,1.349,1.347,1.3451,1.3434,1.3416,1.3401,1.3372,1.335,1.333,1.3299,1.3278,1.3268,1.3262,1.3243,1.3243,1.3245,1.3243,1.323,1.3231,1.3232,1.3222,1.3222,1.3222,0,0,1.3567,1.3547,1.3534,1.3514,1.3484,1.3463,1.346,1.3425,1.3411,1.3388,1.3366,1.3347,1.3309,1.3288,1.3272,1.3271,1.3254,1.3264,1.3274,1.3262,1.3263,1.3263,1.3262,1.3262,1.3263,1.3263,1.3263,0,1.3582,1.3555,1.3529,1.3512,1.3496,1.347,1.3456,1.3438,1.3401,1.339,1.3385,1.3336,1.3313,1.3287,1.3286,1.3275,1.3269,1.3268,1.3265,1.3265,1.3265,1.3264,1.3263,1.3265,1.3265,1.3264,1.3264,0,1.3574,1.3556,1.3548,1.3515,1.3498,1.3483,1.3454,1.344,1.3424,1.3403,1.3379,1.3351,1.3322,1.3314,1.3298,1.3285,1.3282,1.3271,1.3261,1.3268,1.3266,1.3265,1.3267,1.3266,1.3266,1.3265,0,0,1.3599,1.3551,1.3549,1.3533,1.3498,1.3482,1.3465,1.3437,1.3425,1.3401,1.3385,1.3353,1.3342,1.3324,1.3305,1.3295,1.3295,1.3285,1.3284,1.3288,1.3278,1.3286,1.3286,1.3284,1.3284,1.3284,1.3281,0,1.3601,1.357,1.3546,1.3523,1.3505,1.348,1.3464,1.344,1.342,1.3401,1.3378,1.3356,1.3344,1.3333,1.3322,1.3298,1.3293,1.3298,1.3268,1.3267,1.3276,1.3285,1.3294,1.3292,1.328,1.328,1.3279,0,1.3599,1.3576,1.3552,1.3518,1.3509,1.3496,1.3468,1.3451,1.3422,1.3408,1.3388,1.3369,1.3348,1.334,1.331,1.3314,1.33,1.3286,1.3285,1.3281,1.3273,1.3281,1.3291,1.3291,1.3278,1.3278,1.3278,0,1.3619,1.3582,1.3563,1.355,1.351,1.3501,1.3483,1.3455,1.344,1.3415,1.3404,1.3377,1.3362,1.3341,1.3314,1.3311,1.3287,1.3277,1.3274,1.3274,1.3269,1.327,1.3277,1.3261,1.3261,1.3261,1.3261,0,1.3623,1.3609,1.3571,1.3559,1.3542,1.3514,1.3498,1.3478,1.3453,1.3436,1.3412,1.3396,1.3362,1.3341,1.332,1.3298,1.3291,1.3278,1.3273,1.328,1.3282,1.3271,1.327,1.3261,1.3261,1.3261,1.3261,0,1.3643,1.3617,1.3594,1.3558,1.3548,1.3537,1.3506,1.3492,1.3471,1.345,1.3443,1.3409,1.3384,1.3355,1.332,1.3305,1.3285,1.3277,1.3295,1.3291,1.3289,1.329,1.3289,1.3287,1.3274,1.3274,1.3274,0,1.3647,1.3636,1.3599,1.3586,1.3569,1.3549,1.3533,1.3505,1.3489,1.3456,1.3446,1.3419,1.3396,1.3357,1.3328,1.3301,1.3292,1.3293,1.3288,1.3295,1.3291,1.3292,1.329,1.3295,1.3295,1.3296,1.3296,0,1.3658,1.3645,1.3624,1.3598,1.358,1.3558,1.3535,1.3526,1.3492,1.3476,1.345,1.3432,1.3397,1.337,1.3339,1.3319,1.3302,1.3298,1.3296,1.3303,1.3314,1.3307,1.3299,1.3298,1.3298,1.3298,1.3298,1.3297,1.3669,1.3658,1.363,1.3606,1.3586,1.3565,1.3551,1.3528,1.3506,1.3476,1.346,1.3434,1.3405,1.3362,1.3343,1.3321,1.3316,1.3312,1.3311,1.3311,1.3313,1.3318,1.3316,1.3316,1.3316,1.3315,1.3315,0,1.3678,1.3658,1.3638,1.3606,1.3588,1.3574,1.3547,1.3532,1.351,1.3485,1.3463,1.3433,1.3407,1.3376,1.3348,1.3336,1.3327,1.333,1.333,1.3326,1.332,1.3325,1.3337,1.3337,1.3337,1.3337,1.3337,1.3337,1.368,1.366,1.3644,1.3613,1.3593,1.3568,1.3554,1.3534,1.3514,1.3482,1.346,1.3441,1.3413,1.3382,1.3357,1.3348,1.3339,1.3343,1.3333,1.3328,1.3326,1.3324,1.3328,1.3342,1.3342,1.334,1.334,1.334]}]]